Weather History for KCKV - September, 2012

Change the Weather History Date:

Sunday, September 2, 2012

  Actual Average Record
Temperature  
Mean Temperature 78 °F -  
Max Temperature 83 °F - 104 °F (1953)
Min Temperature 72 °F - 44 °F (1967)
Degree Days  
Heating Degree Days 0    
Month to date heating degree days 0  
Since 1 July heating degree days 0  
Cooling Degree Days 13    
Month to date cooling degree days 27  
Growing Degree Days 26 (Base 50)    
Moisture  
Dew Point 72 °F    
Average Humidity 82    
Maximum Humidity 94    
Minimum Humidity 69    
Precipitation  
Precipitation 0.35 in - 2.64 in (2003)
Month to date precipitation 1.21  
Sea Level Pressure  
Sea Level Pressure 29.86 in    
Wind  
Wind Speed 9 mph (SSW)    
Max Wind Speed 20 mph    
Max Gust Speed 25 mph    
Visibility 8 miles    
Events Rain    
T = Trace of Precipitation, MM = Missing Value Source: NWS Daily Summary

Daily Weather History Graph

Daily Weather History Graph

Search for Another Location

Airport or City:

Trip Planner

Search our weather history database for the weather conditions in past years. The results will help you decide how hot, cold, wet, or windy it might be!

Date:

Astronomy

Sep. 02, 2012 Rise Set
Actual Time 6:22 AM CDT 7:15 PM CDT
Civil Twilight 5:55 AM CDT 7:41 PM CDT
Nautical Twilight 5:24 AM CDT 8:13 PM CDT
Astronomical Twilight 4:52 AM CDT 8:45 PM CDT
Moon 8:08 PM CDT (9/2) 8:24 AM CDT (9/2)
Length of Visible Light 13h 46m
Length of Day
12h 53m
Waning Gibbous, 95% of the Moon is Illuminated
Sep 2
Waning Gibbous
Sep 8
Last Quarter
Sep 15
New
Sep 22
First Quarter
Sep 29
Full

Hourly Weather History & Observations

Time (CDT) Temp. Heat Index Dew Point Humidity Pressure Visibility Wind Dir Wind Speed Gust Speed Precip Events Conditions
12:52 AM 73.0 °F - 69.1 °F 87% 29.91 in 10.0 mi SSE 5.8 mph - 0.00 in   Clear
1:52 AM 73.9 °F - 71.1 °F 91% 29.91 in 10.0 mi SSW 11.5 mph - N/A   Mostly Cloudy
2:52 AM 73.9 °F - 71.1 °F 91% 29.89 in 6.0 mi SSW 16.1 mph 24.2 mph 0.02 in Rain Light Rain
3:52 AM 73.9 °F - 71.1 °F 91% 29.88 in 10.0 mi South 13.8 mph - 0.02 in   Partly Cloudy
4:43 AM 73.4 °F - 69.8 °F 88% 29.90 in 10.0 mi SSW 9.2 mph - N/A   Mostly Cloudy
4:52 AM 73.0 °F - 70.0 °F 90% 29.87 in 10.0 mi SSW 9.2 mph 18.4 mph N/A   Mostly Cloudy
5:06 AM 73.4 °F - 69.8 °F 88% 29.89 in 10.0 mi SSW 12.7 mph 19.6 mph 0.00 in   Mostly Cloudy
5:41 AM 73.4 °F - 69.8 °F 88% 29.89 in 10.0 mi SSW 11.5 mph - 0.00 in Rain Light Rain
6:39 AM 71.6 °F - 69.8 °F 94% 29.89 in 10.0 mi SSW 11.5 mph - 0.02 in Rain Light Rain
6:52 AM 72.0 °F - 70.0 °F 93% 29.87 in 10.0 mi South 9.2 mph - 0.02 in Rain Light Rain
7:02 AM 71.6 °F - 69.8 °F 94% 29.89 in 10.0 mi South 8.1 mph - 0.01 in Rain Light Rain
7:39 AM 73.4 °F - 71.6 °F 94% 29.89 in 1.8 mi South 9.2 mph - 0.05 in Rain Heavy Rain
7:46 AM 73.4 °F - 71.6 °F 94% 29.89 in 2.0 mi SSW 10.4 mph 17.3 mph 0.06 in Rain Light Rain
8:05 AM 71.6 °F - 69.8 °F 94% 29.88 in 2.0 mi South 8.1 mph - 0.04 in Rain Rain
8:17 AM 71.6 °F - 69.8 °F 94% 29.89 in 8.0 mi South 5.8 mph - 0.05 in Rain Light Rain
8:52 AM 73.0 °F - 71.1 °F 93% 29.87 in 2.0 mi South 11.5 mph - 0.10 in Rain Rain
9:02 AM 73.4 °F - 71.6 °F 94% 29.88 in 4.0 mi South 11.5 mph 18.4 mph 0.01 in Rain Light Rain
9:13 AM 73.4 °F - 71.6 °F 94% 29.89 in 2.0 mi South 9.2 mph 17.3 mph 0.04 in Rain Light Rain
9:17 AM 73.4 °F - 71.6 °F 94% 29.89 in 1.8 mi South 12.7 mph - 0.07 in Rain Rain
9:24 AM 73.4 °F - 71.6 °F 94% 29.89 in 1.5 mi South 12.7 mph - 0.09 in Rain Light Rain
9:28 AM 73.4 °F - 71.6 °F 94% 29.89 in 3.0 mi South 11.5 mph - 0.09 in Rain Light Rain
9:52 AM 73.9 °F - 72.0 °F 93% 29.88 in 10.0 mi SSW 10.4 mph - 0.09 in   Overcast
9:54 AM 75.2 °F - 71.6 °F 89% 29.89 in 9.0 mi SSW 10.4 mph - N/A   Overcast
10:01 AM 75.2 °F - 73.4 °F 94% 29.89 in 7.0 mi South 11.5 mph - N/A   Overcast
10:16 AM 75.2 °F - 73.4 °F 94% 29.89 in 6.0 mi South 10.4 mph - N/A   Overcast
10:52 AM 75.9 °F - 73.0 °F 91% 29.86 in 8.0 mi SSW 12.7 mph - 0.00 in   Overcast
10:55 AM 75.2 °F - 73.4 °F 94% 29.88 in 7.0 mi South 11.5 mph - 0.00 in Rain Light Rain
11:02 AM 75.2 °F - 73.4 °F 94% 29.88 in 8.0 mi SSW 13.8 mph - 0.00 in Rain Light Rain
11:52 AM 78.1 °F - 73.9 °F 87% 29.86 in 10.0 mi SW 10.4 mph 19.6 mph 0.02 in   Overcast
12:28 PM 78.8 °F - 73.4 °F 83% 29.86 in 10.0 mi SW 9.2 mph - N/A   Mostly Cloudy
12:49 PM 80.6 °F 86.2 °F 75.2 °F 84% 29.86 in 10.0 mi SW 9.2 mph - N/A   Overcast
12:52 PM 80.1 °F 84.5 °F 73.9 °F 81% 29.84 in 10.0 mi WSW 10.4 mph - N/A   Overcast
1:03 PM 80.6 °F 85.4 °F 73.4 °F 79% 29.85 in 10.0 mi SW 6.9 mph - N/A   Overcast
1:23 PM 80.6 °F 84.6 °F 71.6 °F 74% 29.85 in 10.0 mi SW 13.8 mph 20.7 mph N/A   Overcast
1:52 PM 82.0 °F 87.4 °F 73.0 °F 74% 29.82 in 10.0 mi WSW 8.1 mph - N/A   Overcast
2:29 PM 82.4 °F 87.2 °F 71.6 °F 70% 29.82 in 10.0 mi West 13.8 mph - N/A   Overcast
2:52 PM 82.0 °F 86.3 °F 71.1 °F 69% 29.80 in 10.0 mi WSW 9.2 mph 19.6 mph N/A   Overcast
3:52 PM 79.0 °F - 71.1 °F 77% 29.81 in 10.0 mi West 16.1 mph - N/A   Overcast
4:52 PM 80.1 °F 83.6 °F 71.1 °F 74% 29.81 in 10.0 mi West 11.5 mph - N/A   Overcast
5:52 PM 79.0 °F - 72.0 °F 79% 29.80 in 10.0 mi West 6.9 mph - N/A   Overcast
6:52 PM 78.1 °F - 71.1 °F 79% 29.80 in 10.0 mi West 5.8 mph - N/A   Overcast
7:52 PM 77.0 °F - 71.1 °F 82% 29.82 in 10.0 mi WSW 3.5 mph - N/A   Overcast
8:52 PM 75.9 °F - 71.1 °F 85% 29.83 in 10.0 mi Calm Calm - N/A   Partly Cloudy
9:52 PM 73.9 °F - 71.1 °F 91% 29.83 in 10.0 mi South 3.5 mph - N/A   Clear
10:52 PM 73.9 °F - 71.1 °F 91% 29.83 in 10.0 mi South 5.8 mph - N/A   Partly Cloudy
11:52 PM 73.9 °F - 71.1 °F 91% 29.83 in 10.0 mi SW 5.8 mph - N/A   Scattered Clouds